Dewpoint
54 57 52 48 40 41 39 37 37 35 36 36 36 34 34 35 40 39 61 64 65 66 70 72 73 71 71 71 72 73 73 72 72 73 73 73 73 73 73 73 73 74 73 73 72 72 72 71 71
51 53 53 42 38 31 33 36 35 35 36 34 33 33 32 33 36 56 60 64 65 66 70 71 72 72 71 72 72 73 73 73 73 73 74 74 73 73 73 73 73 73 73 73 72 71 71 71 71
52 55 47 43 37 31 28 32 34 42 40 35 33 33 33 34 44 56 62 65 66 68 70 71 72 72 73 73 72 72 72 73 73 73 73 74 74 73 73 73 73 72 72 72 72 71 71 71 71
50 54 47 39 36 35 31 32 35 43 44 37 34 32 34 36 49 59 63 65 66 68 70 71 72 72 72 72 72 72 72 73 73 73 73 74 74 73 73 72 72 72 71 71 71 71 71 71 71
51 51 40 37 37 38 38 35 33 33 35 37 35 34 31 45 58 63 64 66 66 68 70 71 72 72 72 71 72 72 72 72 73 73 73 73 73 73 72 72 72 72 71 71 71 70 71 71 70
44 47 37 32 32 35 38 40 38 34 33 33 32 34 34 56 61 65 65 66 67 68 70 71 71 72 72 71 71 72 72 73 73 73 73 73 72 72 73 72 72 72 71 72 71 71 70 70 69
39 39 33 34 32 28 34 37 38 38 35 34 33 32 33 45 63 66 66 67 68 69 70 71 71 71 71 71 70 71 71 72 72 72 72 72 71 71 72 71 71 71 71 72 71 71 70 69 69
38 37 31 31 32 32 35 35 36 37 38 38 40 33 34 49 65 66 66 66 68 69 69 70 71 71 71 71 70 69 71 71 71 71 70 69 69 69 71 70 71 71 71 71 70 70 68 68 68
37 30 26 25 27 32 33 33 34 35 37 38 40 41 41 43 65 65 66 66 67 68 68 70 70 70 71 70 69 69 69 69 69 69 66 68 70 70 69 68 68 69 70 70 69 67 67 66 66
31 28 25 32 34 33 32 30 31 33 34 38 38 37 37 40 49 62 64 64 65 67 68 69 68 70 70 70 70 71 71 71 70 70 69 69 70 69 69 66 66 68 68 68 67 66 64 63 63
20 25 25 30 29 34 27 21 30 32 34 35 32 33 35 40 45 51 62 64 64 66 68 68 67 69 69 69 70 70 70 69 69 70 68 69 68 68 68 68 67 66 64 65 63 62 62 62 62
14 17 14 18 18 18 19 21 25 28 32 35 30 35 34 40 43 45 50 62 64 66 67 67 68 68 68 68 68 69 69 68 69 68 68 68 68 67 66 65 64 61 60 59 60 60 60 60 61
14 13 14 16 16 16 16 17 22 24 25 27 31 27 30 39 41 44 50 58 65 65 67 68 68 67 67 67 68 68 68 67 67 67 68 67 67 66 65 62 61 59 58 59 59 59 58 57 57
15 15 16 16 16 16 14 12 17 19 23 22 23 26 31 40 37 41 43 46 58 64 66 68 67 67 67 67 67 67 67 67 68 67 67 67 66 65 63 60 59 57 57 58 58 57 56 55 55
17 15 17 15 16 17 20 17 15 16 15 17 22 30 37 37 36 37 40 42 47 56 65 67 67 67 67 67 67 67 67 67 67 67 67 66 65 64 62 60 59 57 55 55 55 54 53 53 52
14 15 13 14 15 16 21 16 17 18 18 18 24 39 37 36 36 36 38 41 45 51 60 66 66 66 66 66 67 66 66 67 67 66 66 66 64 63 61 59 57 55 55 55 55 54 52 52 52
12 11 13 14 18 19 22 20 23 33 35 24 39 39 38 36 36 36 37 40 44 49 54 63 65 66 66 66 67 66 66 66 66 66 66 65 63 62 61 60 56 55 55 54 54 53 53 51 51
10 10 12 13 16 18 20 22 31 31 34 36 35 36 37 36 34 35 35 39 42 46 51 59 64 65 65 66 66 65 65 66 66 65 65 64 63 61 60 57 55 55 54 53 53 53 52 52 50
20 17 13 15 17 23 23 25 26 29 28 29 32 34 34 35 35 35 35 38 41 43 46 51 58 63 65 65 64 64 64 65 65 65 64 63 61 60 58 58 56 55 54 53 52 51 51 50 51
17 10 11 16 20 22 22 25 27 27 28 28 27 29 31 33 34 34 34 35 38 40 42 46 50 55 63 64 64 64 64 64 64 64 64 63 61 59 58 56 55 55 54 52 51 51 50 51 52
13 10 15 16 20 21 23 22 22 25 26 26 25 26 28 31 32 33 33 34 37 38 39 43 46 51 56 62 63 62 63 63 62 62 63 62 61 59 58 57 56 55 54 52 52 53 53 52 52
13 16 18 17 17 11 20 13 18 21 23 22 24 25 26 29 31 31 33 33 35 37 39 41 43 48 51 57 62 61 61 60 61 62 63 62 61 59 58 57 56 55 55 53 53 53 54 54 53
13 18 17 18 18 16 12 16 12 18 18 18 20 24 25 27 29 30 31 32 34 36 38 39 41 44 45 50 60 62 61 61 61 62 62 62 61 60 58 57 56 55 55 54 53 52 53 55 54
17 10 16 19 14 5 12 6 10 14 17 18 19 20 23 24 26 28 29 31 32 35 36 37 39 41 42 45 49 59 60 61 60 60 60 61 60 60 59 57 57 56 55 54 53 53 53 54 54
11 5 3 2 4 5 12 10 11 14 18 18 19 20 21 22 25 26 26 27 30 32 34 36 37 38 40 42 44 48 56 59 59 60 60 60 59 59 59 58 57 56 55 54 53 53 53 53 53
8 2 1 -3 4 5 7 5 13 14 16 20 18 20 20 20 23 25 25 26 28 30 33 33 35 36 38 39 40 43 45 51 59 59 60 60 60 59 59 58 57 56 55 55 53 53 54 54 54
5 6 9 0 1 2 1 6 12 16 17 16 16 16 18 20 21 23 25 25 26 28 30 32 33 34 35 36 38 41 42 44 46 50 60 61 61 60 59 59 58 57 56 55 54 54 54 53 53
7 9 3 2 -1 -2 -0 -2 8 7 12 14 13 13 15 18 20 21 23 24 26 27 29 30 32 32 33 34 36 37 39 41 43 47 48 56 60 60 59 58 58 58 57 56 54 54 54 54 53
6 1 1 -0 -3 -3 -1 5 7 6 7 12 13 13 13 15 18 20 22 23 25 27 28 29 30 31 31 33 34 35 36 37 39 41 43 45 48 53 58 58 58 58 57 56 55 55 54 53 53
-1 -4 -5 -2 -9 -6 -2 4 9 7 6 6 11 13 13 14 15 18 20 22 26 26 27 28 29 29 30 31 32 33 34 35 36 37 39 41 43 45 48 55 58 57 57 57 55 54 54 53 53
Lifted_Index
6 6 5 4 3 3 2 2 2 1 1 1 2 2 2 3 3 2 2 1 -0 -1 -3 -4 -3 -3 -2 -3 -3 -3 -3 -3 -3 -3 -4 -4 -4 -4 -3 -3 -4 -4 -3 -3 -2 -2 -2 -1 -1
7 6 5 3 3 2 2 2 2 1 1 1 1 2 2 3 3 2 1 0 -1 -2 -3 -4 -4 -3 -3 -3 -3 -3 -3 -3 -3 -3 -4 -4 -4 -4 -3 -3 -4 -4 -3 -3 -2 -2 -1 -1 -1
7 6 5 4 3 2 2 3 3 2 2 2 2 2 3 3 3 2 1 -0 -2 -3 -4 -4 -4 -4 -3 -3 -3 -3 -2 -2 -3 -3 -4 -4 -4 -4 -4 -3 -3 -3 -3 -3 -2 -2 -2 -1 -1
7 6 6 6 4 3 3 3 3 3 3 3 2 2 3 4 3 1 0 -1 -2 -3 -4 -4 -4 -4 -4 -3 -3 -3 -2 -2 -3 -3 -3 -4 -4 -4 -4 -4 -3 -3 -3 -2 -2 -2 -2 -2 -1
7 7 7 6 6 5 4 3 3 3 3 3 3 3 3 4 2 0 -1 -2 -3 -4 -4 -5 -5 -4 -4 -3 -3 -3 -2 -2 -3 -3 -3 -3 -3 -3 -3 -3 -3 -3 -3 -3 -2 -2 -2 -2 -1
8 7 6 6 6 7 6 5 3 2 2 3 3 3 3 3 1 -1 -2 -2 -3 -4 -5 -5 -5 -4 -4 -3 -3 -3 -3 -3 -3 -3 -3 -3 -3 -3 -3 -3 -3 -3 -3 -3 -2 -2 -2 -1 -1
10 8 7 7 8 9 9 8 6 4 2 3 4 4 4 2 -0 -2 -2 -3 -3 -4 -5 -5 -5 -4 -4 -3 -3 -3 -3 -3 -3 -2 -2 -2 -2 -2 -3 -3 -3 -3 -3 -3 -2 -2 -1 -1 -1
12 11 9 9 9 10 10 10 9 7 5 4 4 4 4 2 -1 -3 -3 -3 -3 -4 -4 -4 -4 -4 -4 -3 -3 -2 -3 -3 -2 -2 -2 -2 -2 -2 -2 -2 -3 -3 -3 -3 -2 -1 -0 -0 0
14 13 12 11 11 11 11 11 10 10 8 6 5 5 4 2 -1 -3 -3 -3 -3 -3 -4 -4 -4 -4 -4 -3 -3 -2 -2 -2 -2 -2 -1 -1 -2 -2 -2 -2 -2 -2 -2 -2 -1 -0 1 1 1
16 15 14 14 14 14 13 12 11 11 10 8 6 6 5 3 -1 -2 -3 -3 -3 -3 -3 -3 -3 -3 -3 -3 -3 -3 -2 -2 -2 -1 -1 -1 -1 -2 -2 -2 -2 -2 -1 -1 -0 1 2 2 1
16 16 17 17 17 17 16 15 13 12 11 10 8 6 5 4 1 -1 -2 -3 -3 -3 -4 -3 -3 -3 -3 -3 -3 -3 -2 -2 -1 -1 -1 -1 -1 -1 -1 -1 -1 -1 -1 -0 1 1 2 2 2
14 15 17 18 18 19 18 18 15 13 12 11 9 8 6 5 4 1 -1 -2 -3 -3 -4 -4 -3 -3 -3 -3 -3 -2 -2 -1 -1 -1 -1 -1 -1 -0 -0 -1 -1 -1 -0 1 1 1 1 1 1
12 13 15 17 18 19 19 19 18 16 14 12 10 9 7 7 6 3 1 -1 -2 -3 -4 -4 -3 -3 -3 -3 -3 -2 -2 -1 -1 -1 -1 -1 -0 -0 -0 -0 -1 -0 0 0 1 1 1 1 1
10 10 11 13 15 16 18 19 19 18 16 13 11 9 8 8 6 5 2 1 -1 -2 -3 -4 -3 -3 -3 -3 -3 -3 -2 -1 -1 -1 -1 -1 -0 -0 0 -0 -0 -0 0 0 0 0 1 1 1
8 8 8 9 11 12 14 16 17 18 16 14 11 9 9 8 7 5 4 2 1 -1 -2 -3 -3 -3 -3 -3 -3 -2 -2 -1 -1 -1 -1 -1 -0 0 0 0 0 -0 -0 -0 -0 0 0 1 1
7 7 7 7 8 10 10 12 13 14 14 13 12 10 9 8 8 7 5 3 1 0 -1 -2 -3 -2 -2 -3 -3 -2 -2 -2 -1 -1 -1 -0 -0 -0 0 -0 -0 -0 -0 -1 -1 -0 0 0 1
6 6 5 6 7 8 8 8 9 9 10 10 10 10 9 8 8 8 6 4 2 1 -1 -1 -2 -2 -2 -2 -2 -2 -2 -2 -1 -1 -1 -0 -0 -0 -0 -1 -1 -1 -1 -1 -1 -1 -0 0 1
6 5 5 5 5 6 6 6 6 6 6 6 7 7 8 8 7 8 7 5 3 1 -0 -1 -1 -1 -2 -2 -2 -1 -1 -2 -2 -1 -1 -1 -1 -0 -1 -1 -1 -1 -1 -1 -1 -1 -0 0 1
5 5 4 4 4 4 4 4 4 4 3 4 4 5 6 6 7 7 7 6 4 2 0 -0 -0 -1 -1 -1 -1 -1 -1 -1 -2 -1 -1 -1 -1 -1 -1 -1 -1 -1 -0 -1 -1 -1 -1 -0 0
5 4 4 4 3 3 3 3 3 3 3 3 3 3 4 4 5 6 6 5 4 2 0 -0 0 -0 -0 -1 -1 -1 -1 -1 -1 -1 -1 -1 -1 -1 -1 -1 -1 -1 -0 -0 -1 -1 -1 -0 0
3 3 3 3 2 2 2 2 2 2 2 2 3 3 3 3 4 5 5 4 3 2 1 0 1 1 0 -0 -0 -0 -1 -1 -1 -1 -1 -1 -1 -1 -1 -1 -1 -1 -0 -0 -1 -1 -1 -1 -0
2 3 3 3 2 2 2 1 1 1 1 2 3 3 3 3 3 4 5 5 4 3 1 1 1 1 0 0 1 1 0 -0 -0 -1 -1 -1 -1 -1 -1 -1 -1 -1 -0 -0 -1 -1 -1 -1 -0
3 3 3 2 2 2 2 2 1 1 1 2 3 4 4 4 4 4 5 5 5 4 3 2 1 1 1 1 1 1 1 0 -0 -0 -1 -1 -1 -1 -1 -1 -1 -1 -1 -1 -1 -1 -1 -1 -0
4 3 2 2 1 2 2 2 1 1 1 1 3 4 5 5 5 5 5 6 5 5 5 4 2 2 1 1 1 1 1 1 1 0 -0 -0 -0 -1 -1 -1 -1 -1 -1 -1 -1 -1 -1 -1 -0
5 4 2 1 1 1 1 2 2 2 2 2 3 4 5 5 6 5 5 5 5 6 6 6 4 3 2 2 2 2 2 2 1 1 1 0 0 0 -0 -1 -1 -1 -1 -1 -1 -1 -1 -0 -0
6 5 3 2 1 1 1 1 2 3 3 3 4 4 5 6 6 6 6 6 6 6 6 7 6 4 3 2 2 2 2 2 2 1 1 1 1 1 0 0 -0 -1 -1 -1 -1 -1 -1 -0 -0
8 7 5 3 2 1 2 2 3 4 5 5 5 5 5 6 7 8 8 8 7 7 6 6 6 5 4 3 2 2 1 1 2 1 1 1 1 1 1 1 0 -0 -0 -1 -1 -1 -1 -0 -0
9 8 7 5 3 1 2 3 4 4 5 5 5 6 6 6 7 9 10 10 9 9 8 7 6 6 5 4 3 2 2 1 1 1 1 1 1 1 1 1 1 1 1 0 -0 -0 -0 -0 -0
10 9 8 6 4 2 2 4 5 6 6 6 7 7 7 8 8 9 10 11 11 11 9 8 7 6 5 5 4 3 2 2 2 2 1 1 1 1 1 1 1 1 2 1 1 0 0 0 0
10 9 8 7 5 4 3 5 7 8 7 7 7 8 9 9 9 9 10 11 12 12 10 9 7 7 6 5 4 4 3 3 2 2 1 1 1 1 1 1 1 2 2 2 1 1 1 1 1